Location: Newark
(47.1042°N, 8.6744°E)
Time: 10:28:39
(UTC+00:00)

N. Korean satellite - Pass Details

Date: 16 October 2019
Orbit: 456 x 506 km, 97.2° (Epoch: 12 November)

Event Time Altitude Azimuth Distance (km) Brightness Sun altitude
Rises 04:54:19 0° 20° (NNE) 2,538 10.5 -9.2°
Reaches altitude 10° 04:56:30 10° 30° (NNE) 1,663 9.6 -8.9°
Maximum altitude 04:59:48 34° 97° (E) 810 8.5 -8.3°
Drops below altitude 10° 05:03:07 10° 164° (SSE) 1,676 9.6 -7.8°
Sets 05:05:19 0° 174° (S) 2,561 10.4 -7.4°
